Regional Weather Roundup
Issued by NWS

Home | Current Version | Previous Version | Text Only | Print | Product List | Glossary On
Versions: 1 2 3 4 5 6 7 8 9 10 11 12 13 14 15 16 17 18 19 20 21 22 23 24 25 26 27 28 29 30 31 32 33 34 35 36 37 38 39 40 41 42 43 44 45 46 47 48 49 50
918
ASUS44 KLIX 180010
RWRLA
LOUISIANA WEATHER ROUNDUP
NATIONAL WEATHER SERVICE NEW ORLEANS LA
700 PM CDT WED SEP 17 2014

NOTE: "FAIR" INDICATES FEW OR NO CLOUDS BELOW 12,000 FEET WITH NO
      SIGNIFICANT WEATHER AND/OR OBSTRUCTIONS TO VISIBILITY.
      SKY/WX - SKY CONDITION AND SIGNIFICANT WEATHER.
      TMP - AIR TEMPERATURE.    DP   - DEWPOINT TEMPERATURE.
      RH  - RELATIVE HUMIDITY.  PRES - PRESSURE.
      HX  - HEAT INDEX.         WCI  - WIND CHILL INDEX.

*  THESE STATIONS ARE NOT NWS OR FAA STATIONS AND ARE NOT UNDER
   NWS QUALITY CONTROL.

LAZ040-048-061>063-065-066-069-180100-
SOUTHEAST LOUISIANA

CITY           SKY/WX    TMP DP  RH WIND       PRES   REMARKS
N.O. AUDUBON     N/A     84  76  75 MISG        N/A
6HR MIN TEMP:  84; 6HR MAX TEMP:  90;

N.O. INTL ARPT MOCLDY    84  70  62 N5        29.90S
6HR MIN TEMP:  84; 6HR MAX TEMP:  89;

N.O. LAKEFRONT CLOUDY    84  72  67 SE3       29.91S
6HR MIN TEMP:  84; 6HR MAX TEMP:  86;

N.O. DOWNTOWN* MOCLDY    84  72  65 S7        29.91R
6HR MIN TEMP:  84; 6HR MAX TEMP:  88;

SLIDELL        MOCLDY    82  74  76 CALM      29.90S
6HR MIN TEMP:  82; 6HR MAX TEMP:  89;

BATON ROUGE    MOCLDY    83  74  74 NE3       29.91R
6HR MIN TEMP:  83; 6HR MAX TEMP:  88;

BOOTHVILLE     MOCLDY    82  74  76 CALM      29.91F
6HR MIN TEMP:  82; 6HR MAX TEMP:  88;

BELLE CHASSE   MOCLDY    83  71  67 S9        29.91R
6HR MIN TEMP:  82; 6HR MAX TEMP:  88;

BOGALUSA*      FAIR      82  74  77 CALM      29.92R
6HR MIN TEMP:  81; 6HR MAX TEMP:  92;

GALLIANO*      NOT AVBL
NEW ROADS*     FAIR      82  74  75 NE3       29.91R
6HR MIN TEMP:  82; 6HR MAX TEMP:  87;

GONZALES*      FAIR      80  80  99 CALM      29.90S
6HR MIN TEMP:  80; 6HR MAX TEMP:  88;

HAMMOND*       MOCLDY    82  72  69 CALM      29.92S
HOUMA*         PTCLDY    75  72  88 CALM      29.91S
PORT FOURCHON* CLEAR     82  73  74 SW5       29.94F

$$

LAZ041-044-053-054-180100-
SOUTHWEST LOUISIANA

CITY           SKY/WX    TMP DP  RH WIND       PRES   REMARKS
LAKE CHARLES   LGT RAIN  77  75  93 CALM      29.91S
6HR MIN TEMP:  76; 6HR MAX TEMP:  87; 6HR PCP:  0.37;

LAFAYETTE      PTCLDY    82  75  79 SW7       29.91R
6HR MIN TEMP:  82; 6HR MAX TEMP:  89;

PATTERSON      PTCLDY    81  73  78 SW3       29.94R
6HR MIN TEMP:  81; 6HR MAX TEMP:  90;

SALT POINT       N/A     85  75  72 VRB5      29.90S
6HR MIN TEMP:  85; 6HR MAX TEMP:  88; 6HR PCP:  0.01;

NEW IBERIA     CLEAR     81  75  82 W3        29.91S
6HR MIN TEMP:  81; 6HR MAX TEMP:  91;

CHENAULT AIRPK MOCLDY    77  75  94 SW5       29.91S

$$

LAZ027-028-180100-
CENTRAL LOUISIANA

CITY           SKY/WX    TMP DP  RH WIND       PRES   REMARKS
FORT POLK      PTCLDY    79  73  82 SW5       29.91R
6HR MIN TEMP:  79; 6HR MAX TEMP:  88;

ALEXANDRIA INT CLEAR     83  73  72 NE5       29.88S
6HR MIN TEMP:  83; 6HR MAX TEMP:  88;

ALEXANDRIA     CLEAR     81  75  82 CALM      29.91R
6HR MIN TEMP:  81; 6HR MAX TEMP:  89;


$$

LAZ001-002-180100-
NORTHWEST LOUISIANA

CITY           SKY/WX    TMP DP  RH WIND       PRES   REMARKS
SHREVEPORT     MOCLDY    86  68  54 SE9       29.88R
6HR MIN TEMP:  86; 6HR MAX TEMP:  91;

BARKSDALE AFB  MOCLDY    84  71  65 SE7       29.89R
6HR MIN TEMP:  83; 6HR MAX TEMP:  91;

DTN SHREVEPORT MOCLDY    84  70  62 SE7       29.88S
6HR MIN TEMP:  84; 6HR MAX TEMP:  90;


$$

LAZ014-016-180100-
NORTHEAST LOUISIANA

CITY           SKY/WX    TMP DP  RH WIND       PRES   REMARKS
MONROE         PTCLDY    83  71  67 CALM      29.90S
6HR MIN TEMP:  83; 6HR MAX TEMP:  92;

TALLULAH       CLEAR     78  71  79 CALM      29.90R
6HR MIN TEMP:  78; 6HR MAX TEMP:  93;


$$




USA.gov is the U.S. government's official web portal to all federal, state and local government web resources and services.